Location: Notre Dame Regional High School Observatory
(37.3056°N, 89.6097°W)
Time: 13:32:56
(UTC-05:00)

Okean 2 Rocket - Visible Passes

Search period start: 23 October 2014 00:00
Search period end: 02 November 2014 00:00
Orbit: 618 x 644 km, 82.5° (Epoch: 22 October)

Date Brightness Start Highest point End Pass type
(mag) Time Alt. Az. Time Alt. Az. Time Alt. Az.
23 Oct 3.8 18:40:43 10° NNE 18:44:41 31° ENE 18:48:39 10° SE visible
23 Oct 5.8 20:19:22 10° NW 20:22:32 19° W 20:25:43 10° SW visible
24 Oct 3.0 19:01:22 10° N 19:05:48 67° E 19:10:15 10° SSE visible
25 Oct 3.8 19:22:25 10° NNW 19:26:48 56° W 19:31:10 10° S visible
26 Oct 5.4 19:43:57 10° NNW 19:47:40 26° W 19:51:24 10° SW visible
27 Oct 6.2 06:38:06 10° SE 06:40:53 17° E 06:43:41 10° NE visible
27 Oct 3.3 18:26:29 10° N 18:30:48 48° E 18:35:08 10° SSE visible
27 Oct 6.5 20:06:28 10° WNW 20:08:25 13° W 20:10:23 10° WSW visible
28 Oct 3.3 18:47:22 10° N 18:51:51 79° W 18:56:20 10° S visible
29 Oct 4.9 19:08:41 10° NNW 19:12:46 36° W 19:16:52 10° SSW visible
30 Oct 6.5 06:04:19 10° ESE 06:06:02 12° E 06:07:45 10° ENE visible
30 Oct 6.2 19:30:37 10° NW 19:33:34 18° W 19:36:32 10° SW visible
31 Oct 5.6 06:23:10 10° SE 06:26:46 25° E 06:30:23 10° NNE visible
01 Nov 4.0 06:43:22 10° S 06:47:38 55° E 06:51:56 10° NNE visible
01 Nov 4.2 18:33:30 10° NNW 18:37:50 50° W 18:42:11 10° SSW visible
